UAL1871 KSAN-KSFO

Flight info

Callsign UAL1871
Flight time 1h 3m
Altitude 36000
Route PADRZ2 IKAYE RIZIN SPLNT STOKD SERFR SERFR4
Aircraft A320/M-SDE3FGHIRWY/LB1

Departure

Time 2026-04-21 02:06
Airport San Diego International Airport (KSAN)

Arrival

Time 2026-04-21 03:09
Airport San Francisco International Airport (KSFO)
Time Latitude Longitude Altitude Speed Heading
2026-04-21 01:35 32.73379 -117.20350 26 ft 0 kts 262°
2026-04-21 01:46 32.73379 -117.20349 23 ft 0 kts 262°
2026-04-21 01:52 32.73381 -117.20336 23 ft 3 kts 257°
2026-04-21 01:52 32.73372 -117.20284 27 ft 4 kts 340°
2026-04-21 01:52 32.73357 -117.20280 24 ft 1 kts
2026-04-21 01:53 32.73354 -117.20280 24 ft 0 kts
2026-04-21 01:55 32.73356 -117.20280 23 ft 2 kts
2026-04-21 01:55 32.73392 -117.20277 22 ft 8 kts
2026-04-21 01:55 32.73455 -117.20259 23 ft 10 kts 14°
2026-04-21 01:56 32.73523 -117.20230 24 ft 10 kts 29°
2026-04-21 01:56 32.73541 -117.20157 26 ft 10 kts 101°
2026-04-21 01:56 32.73519 -117.20064 26 ft 13 kts 105°
2026-04-21 01:56 32.73493 -117.19955 29 ft 14 kts 106°
2026-04-21 01:57 32.73464 -117.19835 27 ft 16 kts 106°
2026-04-21 01:57 32.73430 -117.19701 28 ft 18 kts 106°
2026-04-21 01:57 32.73396 -117.19558 27 ft 18 kts 106°
2026-04-21 01:57 32.73360 -117.19408 31 ft 17 kts 105°
2026-04-21 01:58 32.73323 -117.19257 23 ft 20 kts 107°
2026-04-21 01:58 32.73283 -117.19092 28 ft 21 kts 105°
2026-04-21 01:58 32.73242 -117.18916 27 ft 23 kts 105°
2026-04-21 01:58 32.73197 -117.18733 22 ft 22 kts 106°
2026-04-21 01:59 32.73159 -117.18579 27 ft 21 kts 106°
2026-04-21 01:59 32.73116 -117.18400 31 ft 24 kts 106°
2026-04-21 01:59 32.73070 -117.18215 25 ft 24 kts 106°
2026-04-21 01:59 32.73026 -117.18030 25 ft 19 kts 106°
2026-04-21 02:00 32.72991 -117.17891 23 ft 18 kts 107°
2026-04-21 02:00 32.72958 -117.17767 21 ft 13 kts 107°
2026-04-21 02:00 32.72952 -117.17700 22 ft 0 kts 84°
2026-04-21 02:04 32.72959 -117.17665 28 ft 10 kts 75°
2026-04-21 02:05 32.73005 -117.17618 27 ft 10 kts 352°
2026-04-21 02:05 32.73046 -117.17693 26 ft 14 kts 288°
2026-04-21 02:05 32.73127 -117.18028 24 ft 77 kts 285°
2026-04-21 02:05 32.73333 -117.18871 29 ft 133 kts 286°
2026-04-21 02:06 32.73627 -117.20037 275 ft 153 kts 287°
2026-04-21 02:06 32.74027 -117.21215 904 ft 154 kts 299°
2026-04-21 02:06 32.74590 -117.22297 1533 ft 154 kts 302°
2026-04-21 02:06 32.75201 -117.23391 2009 ft 167 kts 303°
2026-04-21 02:07 32.75891 -117.24618 2287 ft 190 kts 303°
2026-04-21 02:07 32.76669 -117.26001 2559 ft 214 kts 303°
2026-04-21 02:07 32.77546 -117.27561 2930 ft 239 kts 303°
2026-04-21 02:07 32.78494 -117.29254 3475 ft 257 kts 303°
2026-04-21 02:08 32.79496 -117.31050 4319 ft 264 kts 302°
2026-04-21 02:08 32.80552 -117.32856 5220 ft 269 kts 305°
2026-04-21 02:08 32.81691 -117.34652 6077 ft 275 kts 306°
2026-04-21 02:08 32.82879 -117.36469 6918 ft 280 kts 306°
2026-04-21 02:09 32.84092 -117.38309 7718 ft 285 kts 306°
2026-04-21 02:09 32.85325 -117.40185 8536 ft 289 kts 306°
2026-04-21 02:09 32.86569 -117.42091 9363 ft 294 kts 306°
2026-04-21 02:09 32.87828 -117.44028 10143 ft 298 kts 305°
2026-04-21 02:10 32.89141 -117.46063 10447 ft 321 kts 305°
2026-04-21 02:10 32.90512 -117.48202 10857 ft 335 kts 304°
2026-04-21 02:10 32.91935 -117.50420 11528 ft 339 kts 304°
2026-04-21 02:10 32.93377 -117.52666 12265 ft 342 kts 304°
2026-04-21 02:11 32.94828 -117.54928 13012 ft 344 kts 304°
2026-04-21 02:11 32.96286 -117.57200 13758 ft 347 kts 303°
2026-04-21 02:11 32.97757 -117.59498 14416 ft 350 kts 303°
2026-04-21 02:11 32.99241 -117.61818 15017 ft 354 kts 303°
2026-04-21 02:12 33.00722 -117.64136 15602 ft 358 kts 303°
2026-04-21 02:12 33.02241 -117.66513 16183 ft 362 kts 303°
2026-04-21 02:12 33.03775 -117.68915 16765 ft 366 kts 303°
2026-04-21 02:12 33.05328 -117.71345 17350 ft 370 kts 303°
2026-04-21 02:13 33.07071 -117.73663 17935 ft 380 kts 313°
2026-04-21 02:13 33.09100 -117.75735 18481 ft 386 kts 315°
2026-04-21 02:13 33.11132 -117.77791 19010 ft 389 kts 315°
2026-04-21 02:13 33.13206 -117.79896 19564 ft 392 kts 315°
2026-04-21 02:14 33.15295 -117.82019 20137 ft 395 kts 315°
2026-04-21 02:14 33.17396 -117.84158 20706 ft 398 kts 315°
2026-04-21 02:14 33.19502 -117.86315 21262 ft 400 kts 314°
2026-04-21 02:14 33.21561 -117.88575 21810 ft 402 kts 311°
2026-04-21 02:15 33.23531 -117.90888 22338 ft 404 kts 310°
2026-04-21 02:15 33.25524 -117.93324 22881 ft 406 kts 309°
2026-04-21 02:15 33.27492 -117.95764 23426 ft 409 kts 309°
2026-04-21 02:15 33.29457 -117.98183 23888 ft 412 kts 310°
2026-04-21 02:16 33.31478 -118.00634 24329 ft 415 kts 310°
2026-04-21 02:16 33.33523 -118.03085 24768 ft 417 kts 311°
2026-04-21 02:16 33.35591 -118.05548 25201 ft 420 kts 311°
2026-04-21 02:16 33.37666 -118.08019 25650 ft 422 kts 311°
2026-04-21 02:17 33.39752 -118.10508 26083 ft 424 kts 310°
2026-04-21 02:17 33.41847 -118.13015 26531 ft 426 kts 310°
2026-04-21 02:17 33.43921 -118.15503 26938 ft 428 kts 310°
2026-04-21 02:17 33.46025 -118.18031 27338 ft 430 kts 311°
2026-04-21 02:18 33.48146 -118.20580 27734 ft 432 kts 311°
2026-04-21 02:18 33.50271 -118.23137 28122 ft 434 kts 311°
2026-04-21 02:18 33.52409 -118.25709 28513 ft 436 kts 311°
2026-04-21 02:18 33.54557 -118.28293 28901 ft 438 kts 311°
2026-04-21 02:19 33.56717 -118.30890 29297 ft 440 kts 311°
2026-04-21 02:19 33.58888 -118.33506 29712 ft 442 kts 311°
2026-04-21 02:19 33.61058 -118.36126 30097 ft 444 kts 311°
2026-04-21 02:19 33.63240 -118.38762 30458 ft 445 kts 310°
2026-04-21 02:20 33.65394 -118.41363 30818 ft 445 kts 310°
2026-04-21 02:20 33.67578 -118.44005 31137 ft 447 kts 310°
2026-04-21 02:20 33.69774 -118.46667 31432 ft 449 kts 310°
2026-04-21 02:20 33.71977 -118.49342 31767 ft 449 kts 310°
2026-04-21 02:21 33.74178 -118.52011 32186 ft 449 kts 310°
2026-04-21 02:21 33.76376 -118.54674 32600 ft 448 kts 310°
2026-04-21 02:21 33.78572 -118.57339 32999 ft 448 kts 310°
2026-04-21 02:21 33.80732 -118.59966 33402 ft 447 kts 309°
2026-04-21 02:22 33.82919 -118.62630 33815 ft 447 kts 309°
2026-04-21 02:22 33.85099 -118.65287 34210 ft 446 kts 309°
2026-04-21 02:22 33.87282 -118.67946 34565 ft 446 kts 309°
2026-04-21 02:22 33.89468 -118.70606 34884 ft 446 kts 309°
2026-04-21 02:23 33.91649 -118.73259 35204 ft 446 kts 309°
2026-04-21 02:23 33.93837 -118.75922 35496 ft 447 kts 309°
2026-04-21 02:23 33.96025 -118.78594 35792 ft 447 kts 308°
2026-04-21 02:23 33.98205 -118.81263 36004 ft 447 kts 308°
2026-04-21 02:24 34.00354 -118.83894 36050 ft 445 kts 308°
2026-04-21 02:24 34.04688 -118.89196 36034 ft 443 kts 308°
2026-04-21 02:25 34.09003 -118.94497 36059 ft 442 kts 308°
2026-04-21 02:25 34.13301 -118.99821 36042 ft 440 kts 305°
2026-04-21 02:26 34.16767 -119.05778 36062 ft 431 kts 295°
2026-04-21 02:26 34.19937 -119.11934 36043 ft 432 kts 295°
2026-04-21 02:27 34.23095 -119.18065 36037 ft 432 kts 295°
2026-04-21 02:27 34.26272 -119.24242 36061 ft 432 kts 295°
2026-04-21 02:28 34.29447 -119.30422 36065 ft 432 kts 295°
2026-04-21 02:28 34.32614 -119.36601 36065 ft 431 kts 295°
2026-04-21 02:29 34.35749 -119.42735 36062 ft 431 kts 295°
2026-04-21 02:29 34.38903 -119.48914 36067 ft 430 kts 295°
2026-04-21 02:30 34.42413 -119.54840 36079 ft 440 kts 307°
2026-04-21 02:30 34.45999 -119.59239 36075 ft 441 kts 308°
2026-04-21 02:31 34.51004 -119.65396 36065 ft 439 kts 308°
2026-04-21 02:31 34.54565 -119.69795 36052 ft 439 kts 308°
2026-04-21 02:32 34.58848 -119.75085 36053 ft 439 kts 308°
2026-04-21 02:32 34.63138 -119.80372 36038 ft 439 kts 308°
2026-04-21 02:33 34.67421 -119.85661 36057 ft 438 kts 308°
2026-04-21 02:33 34.71684 -119.90949 36055 ft 437 kts 308°
2026-04-21 02:34 34.75909 -119.96205 36063 ft 437 kts 308°
2026-04-21 02:34 34.80157 -120.01480 36058 ft 436 kts 308°
2026-04-21 02:35 34.84392 -120.06751 36054 ft 435 kts 308°
2026-04-21 02:35 34.88617 -120.12028 36059 ft 435 kts 308°
2026-04-21 02:36 34.92838 -120.17303 36070 ft 433 kts 308°
2026-04-21 02:36 34.97042 -120.22559 36063 ft 433 kts 308°
2026-04-21 02:37 35.01218 -120.27791 36058 ft 432 kts 308°
2026-04-21 02:37 35.05412 -120.33055 36059 ft 432 kts 308°
2026-04-21 02:38 35.09615 -120.38309 36067 ft 433 kts 309°
2026-04-21 02:38 35.14024 -120.43356 36066 ft 435 kts 311°
2026-04-21 02:39 35.18525 -120.48247 36054 ft 435 kts 311°
2026-04-21 02:39 35.23021 -120.53198 36054 ft 434 kts 311°
2026-04-21 02:40 35.27466 -120.58202 36067 ft 435 kts 310°
2026-04-21 02:40 35.31903 -120.63236 36062 ft 435 kts 310°
2026-04-21 02:41 35.36321 -120.68227 36055 ft 435 kts 310°
2026-04-21 02:41 35.40775 -120.73254 36071 ft 435 kts 310°
2026-04-21 02:42 35.45232 -120.78295 36057 ft 435 kts 310°
2026-04-21 02:42 35.49819 -120.83180 36057 ft 441 kts 316°
2026-04-21 02:43 35.54700 -120.87686 36055 ft 441 kts 316°
2026-04-21 02:43 35.59599 -120.92244 36064 ft 441 kts 315°
2026-04-21 02:43 35.62050 -120.94526 35884 ft 443 kts 315°
2026-04-21 02:44 35.64498 -120.96803 35648 ft 440 kts 315°
2026-04-21 02:44 35.66939 -120.99073 35400 ft 439 kts 315°
2026-04-21 02:44 35.69374 -121.01335 35151 ft 438 kts 315°
2026-04-21 02:44 35.71800 -121.03592 34911 ft 435 kts 315°
2026-04-21 02:45 35.74206 -121.05830 34493 ft 432 kts 315°
2026-04-21 02:45 35.76599 -121.08066 34003 ft 432 kts 315°
2026-04-21 02:45 35.78988 -121.10301 33484 ft 430 kts 315°
2026-04-21 02:45 35.81368 -121.12530 33005 ft 427 kts 315°
2026-04-21 02:46 35.83701 -121.14710 32541 ft 425 kts 315°
2026-04-21 02:46 35.86055 -121.16911 32082 ft 423 kts 315°
2026-04-21 02:46 35.88393 -121.19105 31614 ft 421 kts 315°
2026-04-21 02:46 35.90722 -121.21294 31160 ft 420 kts 315°
2026-04-21 02:47 35.93042 -121.23476 30713 ft 419 kts 315°
2026-04-21 02:47 35.95355 -121.25654 30283 ft 418 kts 314°
2026-04-21 02:47 35.97667 -121.27835 29791 ft 417 kts 314°
2026-04-21 02:47 35.99973 -121.30004 29379 ft 415 kts 314°
2026-04-21 02:48 36.02235 -121.32132 28951 ft 413 kts 314°
2026-04-21 02:48 36.04520 -121.34281 28590 ft 410 kts 314°
2026-04-21 02:48 36.06795 -121.36397 28227 ft 409 kts 317°
2026-04-21 02:48 36.09194 -121.38303 27862 ft 410 kts 320°
2026-04-21 02:49 36.11605 -121.40179 27482 ft 408 kts 320°
2026-04-21 02:49 36.14007 -121.42049 27107 ft 407 kts 320°
2026-04-21 02:49 36.16404 -121.43920 26724 ft 409 kts 320°
2026-04-21 02:49 36.18870 -121.45858 26352 ft 432 kts 320°
2026-04-21 02:50 36.21472 -121.47917 25984 ft 456 kts 320°
2026-04-21 02:50 36.24175 -121.50054 25528 ft 477 kts 321°
2026-04-21 02:50 36.27000 -121.52272 24823 ft 479 kts 321°
2026-04-21 02:50 36.29793 -121.54433 24607 ft 463 kts 321°
2026-04-21 02:51 36.32485 -121.56500 24484 ft 446 kts 320°
2026-04-21 02:51 36.35078 -121.58501 24372 ft 432 kts 320°
2026-04-21 02:51 36.37592 -121.60460 24234 ft 421 kts 320°
2026-04-21 02:51 36.40045 -121.62388 23949 ft 415 kts 319°
2026-04-21 02:52 36.42468 -121.64309 23610 ft 412 kts 319°
2026-04-21 02:52 36.44876 -121.66223 23131 ft 410 kts 319°
2026-04-21 02:52 36.47273 -121.68127 22674 ft 407 kts 319°
2026-04-21 02:52 36.49660 -121.70016 22201 ft 406 kts 320°
2026-04-21 02:53 36.51990 -121.71847 22000 ft 394 kts 319°
2026-04-21 02:53 36.54284 -121.73642 21749 ft 385 kts 319°
2026-04-21 02:53 36.56528 -121.75411 21061 ft 378 kts 319°
2026-04-21 02:53 36.58739 -121.77166 20311 ft 376 kts 319°
2026-04-21 02:54 36.60936 -121.78913 19596 ft 374 kts 320°
2026-04-21 02:54 36.63121 -121.80645 18909 ft 372 kts 320°
2026-04-21 02:54 36.65318 -121.82390 18235 ft 377 kts 320°
2026-04-21 02:54 36.67536 -121.84158 17755 ft 377 kts 320°
2026-04-21 02:55 36.69746 -121.85915 17331 ft 375 kts 320°
2026-04-21 02:55 36.71936 -121.87657 16926 ft 374 kts 321°
2026-04-21 02:55 36.74255 -121.89153 16542 ft 377 kts 332°
2026-04-21 02:55 36.76762 -121.90160 16151 ft 380 kts 343°
2026-04-21 02:56 36.79345 -121.90870 15744 ft 378 kts 343°
2026-04-21 02:56 36.84463 -121.92281 14954 ft 374 kts 343°
2026-04-21 02:56 36.86998 -121.92988 14560 ft 373 kts 343°
2026-04-21 02:57 36.89526 -121.93695 14165 ft 371 kts 343°
2026-04-21 02:57 36.92041 -121.94402 13779 ft 370 kts 344°
2026-04-21 02:57 36.94517 -121.95101 13370 ft 368 kts 343°
2026-04-21 02:57 36.96984 -121.95883 12992 ft 364 kts 340°
2026-04-21 02:58 36.99399 -121.96777 12605 ft 361 kts 339°
2026-04-21 02:58 37.01810 -121.97745 12225 ft 358 kts 338°
2026-04-21 02:58 37.04139 -121.98703 11847 ft 356 kts 338°
2026-04-21 02:58 37.06487 -121.99665 11471 ft 354 kts 338°
2026-04-21 02:59 37.08827 -122.00610 11094 ft 353 kts 338°
2026-04-21 02:59 37.11166 -122.01540 10718 ft 352 kts 338°
2026-04-21 02:59 37.13496 -122.02456 10341 ft 350 kts 338°
2026-04-21 02:59 37.15814 -122.03362 9970 ft 348 kts 338°
2026-04-21 03:00 37.18103 -122.04253 9801 ft 339 kts 338°
2026-04-21 03:00 37.20311 -122.05111 9484 ft 327 kts 338°
2026-04-21 03:00 37.22454 -122.05948 9077 ft 316 kts 338°
2026-04-21 03:00 37.24528 -122.06759 8630 ft 309 kts 338°
2026-04-21 03:01 37.26561 -122.07558 8169 ft 302 kts 338°
2026-04-21 03:01 37.28527 -122.08329 7784 ft 293 kts 339°
2026-04-21 03:01 37.30461 -122.09094 7405 ft 296 kts 338°
2026-04-21 03:01 37.32461 -122.09887 7048 ft 297 kts 338°
2026-04-21 03:02 37.34413 -122.10662 6621 ft 298 kts 339°
2026-04-21 03:02 37.36364 -122.11430 6217 ft 289 kts 339°
2026-04-21 03:02 37.38263 -122.12166 5835 ft 280 kts 340°
2026-04-21 03:02 37.40115 -122.12824 5527 ft 275 kts 341°
2026-04-21 03:03 37.41945 -122.13445 5192 ft 266 kts 342°
2026-04-21 03:03 37.43690 -122.14025 4878 ft 253 kts 342°
2026-04-21 03:03 37.45354 -122.14579 4569 ft 242 kts 341°
2026-04-21 03:03 37.46971 -122.15126 4271 ft 239 kts 341°
2026-04-21 03:04 37.48571 -122.15672 3975 ft 237 kts 341°
2026-04-21 03:04 37.50138 -122.16209 3689 ft 233 kts 341°
2026-04-21 03:04 37.51662 -122.16730 3419 ft 221 kts 340°
2026-04-21 03:04 37.53011 -122.17536 3149 ft 210 kts 316°
2026-04-21 03:05 37.53986 -122.18818 2905 ft 198 kts 296°
2026-04-21 03:05 37.54643 -122.20327 2663 ft 195 kts 291°
2026-04-21 03:05 37.55262 -122.21792 2447 ft 185 kts 291°
2026-04-21 03:05 37.55854 -122.23194 2186 ft 177 kts 291°
2026-04-21 03:06 37.56415 -122.24522 1934 ft 165 kts 291°
2026-04-21 03:06 37.56929 -122.25740 1771 ft 150 kts 291°
2026-04-21 03:06 37.57404 -122.26869 1583 ft 145 kts 291°
2026-04-21 03:06 37.57869 -122.27978 1390 ft 142 kts 291°
2026-04-21 03:07 37.58328 -122.29068 1188 ft 140 kts 290°
2026-04-21 03:07 37.58785 -122.30157 1010 ft 140 kts 292°
2026-04-21 03:07 37.59241 -122.31240 831 ft 139 kts 292°
2026-04-21 03:07 37.59697 -122.32325 659 ft 139 kts 295°
2026-04-21 03:08 37.60145 -122.33399 458 ft 137 kts 295°
2026-04-21 03:08 37.60571 -122.34447 273 ft 135 kts 296°
2026-04-21 03:08 37.61015 -122.35479 113 ft 132 kts 297°
2026-04-21 03:08 37.61442 -122.36480 19 ft 120 kts 296°
2026-04-21 03:09 37.61773 -122.37280 18 ft 87 kts 298°
2026-04-21 03:09 37.62000 -122.37810 22 ft 52 kts 297°
2026-04-21 03:09 37.62139 -122.38147 24 ft 37 kts 297°
2026-04-21 03:09 37.62137 -122.38315 22 ft 16 kts 214°
2026-04-21 03:10 37.62057 -122.38366 22 ft 9 kts 244°
2026-04-21 03:10 37.62078 -122.38459 21 ft 12 kts 293°
2026-04-21 03:10 37.62086 -122.38546 18 ft 11 kts 258°
2026-04-21 03:10 37.62081 -122.38614 16 ft 5 kts 268°
2026-04-21 03:11 37.62080 -122.38632 16 ft 0 kts 267°